Time,TemperatureF,DewpointF,PressureIn,WindDirection,WindDirectionDegrees,WindSpeedMPH,WindSpeedGustMPH,Humidity,HourlyPrecipIn,Conditions,Clouds,dailyrainin,SoftwareType,DateUTC
2013-02-16 00:02:00,24.0,18.0,30.27,NNW,336,0.0,3.0,78,0.00,,,0.04,,2013-02-16 06:02:00,
2013-02-16 00:11:00,24.0,18.0,30.27,NNW,336,0.0,3.0,78,0.00,,,0.04,,2013-02-16 06:11:00,
2013-02-16 00:21:00,24.0,18.0,30.27,NNW,338,0.0,4.0,79,0.00,,,0.04,,2013-02-16 06:21:00,
2013-02-16 00:32:00,23.0,16.0,30.27,NNW,348,1.0,6.0,75,0.00,,,0.04,,2013-02-16 06:32:00,
2013-02-16 00:42:00,23.0,16.0,30.27,NNW,348,1.0,6.0,75,0.00,,,0.04,,2013-02-16 06:42:00,
2013-02-16 00:51:00,22.0,15.0,30.27,North,0,0.0,4.0,74,0.00,,,0.04,,2013-02-16 06:51:00,
2013-02-16 01:02:00,22.0,15.0,30.27,North,0,0.0,4.0,74,0.00,,,0.04,,2013-02-16 07:02:00,
2013-02-16 01:11:00,22.0,15.0,30.27,North,0,0.0,4.0,74,0.00,,,0.04,,2013-02-16 07:11:00,
2013-02-16 01:21:00,20.0,13.0,30.27,North,0,0.0,0.0,73,0.00,,,0.04,,2013-02-16 07:21:00,
2013-02-16 01:31:00,19.0,12.0,30.27,North,0,0.0,0.0,75,0.00,,,0.04,,2013-02-16 07:31:00,
2013-02-16 01:42:00,19.0,12.0,30.27,North,0,0.0,0.0,75,0.00,,,0.04,,2013-02-16 07:42:00,
2013-02-16 01:52:00,18.0,12.0,30.27,North,0,0.0,0.0,76,0.00,,,0.04,,2013-02-16 07:52:00,
2013-02-16 02:01:00,18.0,12.0,30.27,North,0,0.0,0.0,76,0.00,,,0.04,,2013-02-16 08:01:00,
2013-02-16 02:11:00,18.0,12.0,30.27,North,0,0.0,0.0,76,0.00,,,0.04,,2013-02-16 08:11:00,
2013-02-16 02:21:00,18.0,12.0,30.27,North,0,0.0,0.0,77,0.00,,,0.04,,2013-02-16 08:21:00,
2013-02-16 02:31:00,18.0,12.0,30.26,North,0,0.0,0.0,77,0.00,,,0.04,,2013-02-16 08:31:00,
2013-02-16 02:42:00,18.0,12.0,30.26,North,0,0.0,0.0,77,0.00,,,0.04,,2013-02-16 08:42:00,
2013-02-16 02:52:00,18.0,12.0,30.26,North,0,0.0,0.0,77,0.00,,,0.04,,2013-02-16 08:52:00,
2013-02-16 03:01:00,17.0,11.0,30.25,North,0,0.0,0.0,77,0.00,,,0.04,,2013-02-16 09:01:00,
2013-02-16 03:11:00,17.0,11.0,30.25,North,0,0.0,0.0,77,0.00,,,0.04,,2013-02-16 09:11:00,
2013-02-16 03:21:00,17.0,11.0,30.25,North,0,0.0,0.0,77,0.00,,,0.04,,2013-02-16 09:21:00,
2013-02-16 03:31:00,17.0,11.0,30.25,North,0,0.0,0.0,77,0.00,,,0.04,,2013-02-16 09:31:00,
2013-02-16 03:42:00,17.0,11.0,30.25,North,0,0.0,0.0,77,0.00,,,0.04,,2013-02-16 09:42:00,
2013-02-16 03:52:00,15.0,10.0,30.24,North,0,0.0,0.0,80,0.00,,,0.04,,2013-02-16 09:52:00,
2013-02-16 04:01:00,14.0,9.0,30.24,North,0,0.0,0.0,81,0.00,,,0.04,,2013-02-16 10:01:00,
2013-02-16 04:11:00,14.0,9.0,30.24,North,0,0.0,0.0,81,0.00,,,0.04,,2013-02-16 10:11:00,
2013-02-16 04:21:00,14.0,10.0,30.24,North,0,0.0,0.0,82,0.00,,,0.04,,2013-02-16 10:21:00,
2013-02-16 04:31:00,14.0,10.0,30.24,North,0,0.0,0.0,83,0.00,,,0.04,,2013-02-16 10:31:00,
2013-02-16 04:41:00,14.0,10.0,30.24,North,0,0.0,0.0,83,0.00,,,0.04,,2013-02-16 10:41:00,
2013-02-16 04:51:00,13.0,9.0,30.24,SW,223,0.0,0.0,83,0.00,,,0.04,,2013-02-16 10:51:00,
2013-02-16 05:02:00,13.0,9.0,30.24,SSW,207,0.0,3.0,84,0.00,,,0.04,,2013-02-16 11:02:00,
2013-02-16 05:11:00,13.0,9.0,30.24,SSW,207,0.0,3.0,84,0.00,,,0.04,,2013-02-16 11:11:00,
2013-02-16 05:22:00,13.0,9.0,30.24,SSW,209,0.0,1.0,85,0.00,,,0.04,,2013-02-16 11:22:00,
2013-02-16 05:32:00,12.0,8.0,30.23,SSW,209,0.0,0.0,85,0.00,,,0.04,,2013-02-16 11:32:00,
2013-02-16 05:42:00,12.0,8.0,30.23,SSW,209,0.0,0.0,85,0.00,,,0.04,,2013-02-16 11:42:00,
2013-02-16 05:52:00,12.0,8.0,30.23,SSW,209,0.0,0.0,85,0.00,,,0.04,,2013-02-16 11:52:00,
2013-02-16 06:01:00,12.0,8.0,30.22,SW,216,0.0,0.0,85,0.00,,,0.04,,2013-02-16 12:01:00,
2013-02-16 06:12:00,12.0,8.0,30.22,SW,216,0.0,0.0,85,0.00,,,0.04,,2013-02-16 12:12:00,
2013-02-16 06:22:00,13.0,9.0,30.22,SW,216,0.0,0.0,85,0.00,,,0.04,,2013-02-16 12:22:00,
2013-02-16 06:32:00,13.0,9.0,30.21,SW,216,0.0,0.0,85,0.00,,,0.04,,2013-02-16 12:32:00,
2013-02-16 06:42:00,13.0,9.0,30.21,SW,216,0.0,0.0,85,0.00,,,0.04,,2013-02-16 12:42:00,
2013-02-16 06:52:00,14.0,10.0,30.21,SW,216,0.0,0.0,85,0.00,,,0.04,,2013-02-16 12:52:00,
2013-02-16 07:02:00,14.0,10.0,30.21,SW,217,0.0,0.0,85,0.00,,,0.04,,2013-02-16 13:02:00,
2013-02-16 07:11:00,14.0,10.0,30.21,SW,217,0.0,0.0,85,0.00,,,0.04,,2013-02-16 13:11:00,
2013-02-16 07:21:00,14.0,10.0,30.21,SW,217,0.0,0.0,85,0.00,,,0.04,,2013-02-16 13:21:00,
2013-02-16 07:31:00,14.0,10.0,30.20,SW,216,0.0,0.0,85,0.00,,,0.04,,2013-02-16 13:31:00,
2013-02-16 07:41:00,14.0,10.0,30.20,SW,216,0.0,0.0,85,0.00,,,0.04,,2013-02-16 13:41:00,
2013-02-16 07:52:00,14.0,10.0,30.20,SW,216,0.0,0.0,84,0.00,,,0.04,,2013-02-16 13:52:00,
2013-02-16 08:01:00,14.0,10.0,30.19,SW,216,0.0,0.0,84,0.00,,,0.04,,2013-02-16 14:01:00,
2013-02-16 08:11:00,14.0,10.0,30.19,SW,216,0.0,0.0,84,0.00,,,0.04,,2013-02-16 14:11:00,
2013-02-16 08:21:00,14.0,10.0,30.19,SW,217,0.0,1.0,84,0.00,,,0.04,,2013-02-16 14:21:00,
2013-02-16 08:32:00,15.0,11.0,30.19,SW,216,0.0,0.0,85,0.00,,,0.04,,2013-02-16 14:32:00,
2013-02-16 08:41:00,15.0,11.0,30.19,SW,216,0.0,0.0,85,0.00,,,0.04,,2013-02-16 14:41:00,
2013-02-16 08:52:00,17.0,13.0,30.17,SW,216,0.0,1.0,84,0.00,,,0.04,,2013-02-16 14:52:00,
2013-02-16 09:01:00,17.0,13.0,30.17,SW,216,0.0,1.0,84,0.00,,,0.04,,2013-02-16 15:01:00,
2013-02-16 09:11:00,17.0,13.0,30.17,SW,216,0.0,1.0,84,0.00,,,0.04,,2013-02-16 15:11:00,
2013-02-16 09:21:00,19.0,14.0,30.17,South,169,0.0,0.0,81,0.00,,,0.04,,2013-02-16 15:21:00,
2013-02-16 09:32:00,19.0,14.0,30.17,South,169,0.0,0.0,81,0.00,,,0.04,,2013-02-16 15:32:00,
2013-02-16 09:42:00,19.0,14.0,30.17,South,169,0.0,0.0,81,0.00,,,0.04,,2013-02-16 15:42:00,
2013-02-16 09:51:00,19.0,14.0,30.17,South,169,0.0,0.0,81,0.00,,,0.04,,2013-02-16 15:51:00,
2013-02-16 10:21:00,21.0,14.0,30.15,South,169,0.0,2.0,74,0.00,,,0.04,,2013-02-16 16:21:00,
2013-02-16 10:32:00,23.0,15.0,30.14,South,169,0.0,2.0,72,0.00,,,0.04,,2013-02-16 16:32:00,
2013-02-16 10:42:00,23.0,15.0,30.14,South,169,0.0,2.0,72,0.00,,,0.04,,2013-02-16 16:42:00,
2013-02-16 10:51:00,25.0,17.0,30.14,South,169,0.0,4.0,72,0.00,,,0.04,,2013-02-16 16:51:00,
2013-02-16 11:01:00,26.0,16.0,30.13,SSE,167,2.0,8.0,64,0.00,,,0.04,,2013-02-16 17:01:00,
2013-02-16 11:11:00,26.0,16.0,30.13,SSE,167,2.0,8.0,64,0.00,,,0.04,,2013-02-16 17:11:00,
2013-02-16 11:22:00,27.0,17.0,30.13,South,169,0.0,4.0,65,0.00,,,0.04,,2013-02-16 17:22:00,
2013-02-16 11:32:00,28.0,17.0,30.10,South,171,1.0,8.0,62,0.00,,,0.04,,2013-02-16 17:32:00,
2013-02-16 11:42:00,28.0,17.0,30.10,South,171,1.0,8.0,62,0.00,,,0.04,,2013-02-16 17:42:00,
2013-02-16 11:52:00,28.0,17.0,30.10,South,171,1.0,8.0,62,0.00,,,0.04,,2013-02-16 17:52:00,
2013-02-16 12:02:00,30.0,17.0,30.09,South,179,5.0,13.0,59,0.00,,,0.04,,2013-02-16 18:02:00,
2013-02-16 12:11:00,30.0,18.0,30.09,SSW,201,4.0,12.0,61,0.00,,,0.04,,2013-02-16 18:11:00,
2013-02-16 12:21:00,30.0,18.0,30.09,SSW,201,4.0,12.0,61,0.00,,,0.04,,2013-02-16 18:21:00,
2013-02-16 12:33:00,30.0,19.0,30.08,South,177,4.0,11.0,62,0.00,,,0.04,,2013-02-16 18:33:00,
2013-02-16 12:42:00,30.0,19.0,30.08,South,177,4.0,11.0,62,0.00,,,0.04,,2013-02-16 18:42:00,
2013-02-16 12:51:00,30.0,19.0,30.08,South,177,4.0,11.0,62,0.00,,,0.04,,2013-02-16 18:51:00,
2013-02-16 13:02:00,30.0,19.0,30.08,South,177,4.0,11.0,62,0.00,,,0.04,,2013-02-16 19:02:00,
2013-02-16 13:11:00,30.0,19.0,30.08,South,177,4.0,11.0,62,0.00,,,0.04,,2013-02-16 19:11:00,
2013-02-16 13:22:00,30.0,20.0,30.06,SSE,163,3.0,9.0,67,0.00,,,0.04,,2013-02-16 19:22:00,
2013-02-16 13:32:00,30.0,20.0,30.06,SW,219,2.0,9.0,67,0.00,,,0.04,,2013-02-16 19:32:00,
2013-02-16 13:42:00,30.0,20.0,30.06,SW,219,2.0,9.0,67,0.00,,,0.04,,2013-02-16 19:42:00,
2013-02-16 13:52:00,30.0,21.0,30.06,South,180,2.0,9.0,69,0.00,,,0.04,,2013-02-16 19:52:00,
2013-02-16 14:01:00,31.0,21.0,30.05,SSW,195,3.0,10.0,67,0.00,,,0.04,,2013-02-16 20:01:00,
2013-02-16 14:11:00,32.0,22.0,30.03,SSW,208,2.0,7.0,67,0.00,,,0.04,,2013-02-16 20:11:00,
2013-02-16 14:21:00,32.0,22.0,30.03,SSW,208,2.0,7.0,67,0.00,,,0.04,,2013-02-16 20:21:00,
2013-02-16 14:32:00,32.0,22.0,30.03,SSW,208,2.0,7.0,67,0.00,,,0.04,,2013-02-16 20:32:00,
2013-02-16 14:42:00,32.0,22.0,30.03,SSW,208,2.0,7.0,67,0.00,,,0.04,,2013-02-16 20:42:00,
2013-02-16 14:52:00,32.0,23.0,30.03,South,177,2.0,6.0,68,0.00,,,0.04,,2013-02-16 20:52:00,
2013-02-16 15:02:00,32.0,23.0,30.03,South,177,2.0,6.0,68,0.00,,,0.04,,2013-02-16 21:02:00,
2013-02-16 15:11:00,32.0,23.0,30.03,South,177,2.0,6.0,68,0.00,,,0.04,,2013-02-16 21:11:00,
2013-02-16 15:21:00,31.0,22.0,30.02,South,185,1.0,6.0,68,0.00,,,0.04,,2013-02-16 21:21:00,
2013-02-16 15:32:00,31.0,22.0,30.02,South,172,1.0,9.0,70,0.00,,,0.04,,2013-02-16 21:32:00,
2013-02-16 15:42:00,31.0,22.0,30.02,South,172,1.0,9.0,70,0.00,,,0.04,,2013-02-16 21:42:00,
2013-02-16 15:52:00,31.0,22.0,30.02,South,172,1.0,9.0,70,0.00,,,0.04,,2013-02-16 21:52:00,
2013-02-16 16:01:00,32.0,23.0,30.03,South,174,1.0,9.0,69,0.00,,,0.04,,2013-02-16 22:01:00,
2013-02-16 16:11:00,32.0,23.0,30.03,South,174,1.0,9.0,69,0.00,,,0.04,,2013-02-16 22:11:00,
2013-02-16 16:21:00,32.0,23.0,30.03,South,175,2.0,9.0,69,0.00,,,0.04,,2013-02-16 22:21:00,
2013-02-16 16:32:00,32.0,23.0,30.03,SE,138,1.0,6.0,69,0.00,,,0.04,,2013-02-16 22:32:00,
2013-02-16 16:42:00,32.0,23.0,30.03,SE,138,1.0,6.0,69,0.00,,,0.04,,2013-02-16 22:42:00,
2013-02-16 16:51:00,32.0,23.0,30.02,South,175,2.0,8.0,68,0.00,,,0.04,,2013-02-16 22:51:00,
2013-02-16 17:02:00,32.0,23.0,30.02,South,177,3.0,11.0,68,0.00,,,0.04,,2013-02-16 23:02:00,
2013-02-16 17:11:00,32.0,23.0,30.02,South,177,3.0,11.0,68,0.00,,,0.04,,2013-02-16 23:11:00,
2013-02-16 17:21:00,32.0,23.0,30.02,South,180,2.0,8.0,68,0.00,,,0.04,,2013-02-16 23:21:00,
2013-02-16 17:31:00,32.0,23.0,30.02,South,180,2.0,8.0,68,0.00,,,0.04,,2013-02-16 23:31:00,
2013-02-16 17:42:00,32.0,23.0,30.02,South,180,2.0,8.0,68,0.00,,,0.04,,2013-02-16 23:42:00,
2013-02-16 17:52:00,31.0,22.0,30.01,SSE,165,1.0,5.0,69,0.00,,,0.04,,2013-02-16 23:52:00,
2013-02-16 18:02:00,31.0,22.0,30.01,SSE,165,0.0,5.0,70,0.00,,,0.04,,2013-02-17 00:02:00,
2013-02-16 18:12:00,31.0,22.0,30.01,SSE,165,0.0,5.0,70,0.00,,,0.04,,2013-02-17 00:12:00,
2013-02-16 18:22:00,31.0,22.0,30.01,SSE,151,0.0,0.0,70,0.00,,,0.04,,2013-02-17 00:22:00,
2013-02-16 18:32:00,31.0,22.0,30.01,SSE,151,0.0,0.0,70,0.00,,,0.04,,2013-02-17 00:32:00,
2013-02-16 18:41:00,31.0,22.0,30.01,SSE,151,0.0,0.0,70,0.00,,,0.04,,2013-02-17 00:41:00,
2013-02-16 18:52:00,30.0,23.0,30.01,SSE,150,0.0,3.0,74,0.00,,,0.04,,2013-02-17 00:52:00,
2013-02-16 19:01:00,30.0,23.0,30.01,SSE,149,0.0,3.0,74,0.00,,,0.04,,2013-02-17 01:01:00,
2013-02-16 19:11:00,30.0,23.0,30.01,SSE,149,0.0,3.0,74,0.00,,,0.04,,2013-02-17 01:11:00,
2013-02-16 19:21:00,30.0,23.0,30.01,SSE,148,0.0,4.0,75,0.00,,,0.03,,2013-02-17 01:21:00,
2013-02-16 19:31:00,30.0,23.0,30.01,SSE,148,0.0,2.0,75,0.00,,,0.03,,2013-02-17 01:31:00,
2013-02-16 19:41:00,30.0,23.0,30.01,SSE,148,0.0,2.0,75,0.00,,,0.03,,2013-02-17 01:41:00,
2013-02-16 19:52:00,30.0,23.0,30.01,SSE,148,0.0,2.0,75,0.00,,,0.03,,2013-02-17 01:52:00,
2013-02-16 20:01:00,30.0,23.0,30.00,SE,146,1.0,3.0,74,0.00,,,0.01,,2013-02-17 02:01:00,
2013-02-16 20:11:00,30.0,23.0,30.00,SE,146,1.0,3.0,74,0.00,,,0.01,,2013-02-17 02:11:00,
2013-02-16 20:21:00,30.0,23.0,30.00,SE,140,1.0,3.0,74,0.00,,,0.01,,2013-02-17 02:21:00,
2013-02-16 20:31:00,30.0,23.0,29.99,SE,140,0.0,4.0,75,0.00,,,0.01,,2013-02-17 02:31:00,
2013-02-16 20:41:00,30.0,23.0,29.99,SE,140,0.0,4.0,75,0.00,,,0.01,,2013-02-17 02:41:00,
2013-02-16 20:52:00,30.0,23.0,29.99,SE,140,0.0,4.0,75,0.00,,,0.01,,2013-02-17 02:52:00,
2013-02-16 21:02:00,30.0,23.0,29.99,SE,140,0.0,4.0,75,0.00,,,0.01,,2013-02-17 03:02:00,
2013-02-16 21:11:00,30.0,23.0,29.99,SE,140,0.0,4.0,75,0.00,,,0.01,,2013-02-17 03:11:00,
2013-02-16 21:21:00,30.0,23.0,29.98,SE,138,0.0,3.0,75,0.00,,,0.01,,2013-02-17 03:21:00,
2013-02-16 21:31:00,30.0,23.0,29.98,SE,129,2.0,5.0,76,0.00,,,0.00,,2013-02-17 03:31:00,
2013-02-16 21:42:00,30.0,23.0,29.98,SE,129,2.0,5.0,76,0.00,,,0.00,,2013-02-17 03:42:00,
2013-02-16 21:51:00,30.0,23.0,29.98,SE,128,1.0,5.0,76,0.00,,,0.00,,2013-02-17 03:51:00,
2013-02-16 22:01:00,30.0,24.0,29.98,SE,132,1.0,4.0,77,0.00,,,0.00,,2013-02-17 04:01:00,
2013-02-16 22:11:00,30.0,24.0,29.98,SE,132,1.0,4.0,77,0.00,,,0.00,,2013-02-17 04:11:00,
2013-02-16 22:21:00,30.0,24.0,29.98,SE,133,1.0,4.0,77,0.00,,,0.00,,2013-02-17 04:21:00,
2013-02-16 22:31:00,30.0,23.0,29.98,SE,133,1.0,4.0,76,0.00,,,0.00,,2013-02-17 04:31:00,
2013-02-16 22:41:00,30.0,23.0,29.98,SE,133,1.0,4.0,76,0.00,,,0.00,,2013-02-17 04:41:00,
2013-02-16 22:51:00,29.0,23.0,29.97,SE,132,0.0,3.0,77,0.00,,,0.00,,2013-02-17 04:51:00,
2013-02-16 23:02:00,29.0,23.0,29.96,SE,132,1.0,3.0,77,0.00,,,0.00,,2013-02-17 05:02:00,
2013-02-16 23:12:00,29.0,23.0,29.96,SE,132,1.0,3.0,77,0.00,,,0.00,,2013-02-17 05:12:00,
2013-02-16 23:22:00,29.0,23.0,29.96,SE,132,1.0,3.0,77,0.00,,,0.00,,2013-02-17 05:22:00,
2013-02-16 23:33:00,29.0,23.0,29.96,SE,132,1.0,3.0,77,0.00,,,0.00,,2013-02-17 05:33:00,